Home   Weather   Netanya   Past weeks

Flag for Israel Past Weather in Netanya, Israel — Yesterday and Last 2 Weeks

Now
45 °F

Clear.


Feels Like: 45 °F
Forecast: 59 / 68 °F
Wind: 1 mph from North

Location: Ben Gurion International Airport

Current Time: Jan 24, 2017 at 3:06:42 am

Latest Report: Jan 24, 2017 at 2:50 am


Visibility: 10 mi

Pressure: 30.09 "Hg

Humidity: 76%

Dew Point: 37 °F

Location of NetanyaLocation

Past Weather in Netanya — Graph

°F

Netanya Temperature Yesterday

Maximum temperature yesterday: 68 °F (at 1:50 pm)
Minimum temperature yesterday: 43 °F (at 3:50 am)
Average temperature yesterday: 55 °F

High & Low Weather Summary for the Past Weeks

 TemperatureHumidityPressure
High70 °F (Jan 17, 2:20 pm)100% (Jan 14, 11:20 pm)30.27 "Hg (Jan 14, 11:20 pm)
Low41 °F (Jan 11, 5:50 am)24% (Jan 23, 1:50 pm)29.86 "Hg (Jan 14, 11:20 pm)
Average55 °F67%30.11 "Hg
* Reported Jan 9 4:20 am — Jan 24 1:50 am, Netanya, Weather by CustomWeather, © 2017

Note: Actual official high and low records may vary slightly from our data, if they occured in-between our weather recording intervals... More about our weather records

Advertising

Netanya Weather History for the Previous 24 Hours

Scroll right to see more
 ConditionsComfort  
Time TempWeatherWind HumidityBarometerVisibility
1:50 am
Tue, Jan 24
46 °FClear.2 mph76%30.09 "Hg10 mi
1:20 am45 °FClear.3 mph87%30.09 "Hg10 mi
12:50 am46 °FClear.2 mph76%30.09 "Hg10 mi
12:20 am46 °FClear.1 mph76%30.09 "Hg10 mi
11:50 pm
Mon, Jan 23
48 °FClear.2 mph71%30.12 "Hg10 mi
11:20 pm48 °FClear.1 mph71%30.12 "Hg10 mi
10:50 pm48 °FClear.1 mph76%30.12 "Hg10 mi
10:20 pm52 °FClear.3 mph62%30.12 "Hg10 mi
9:50 pm50 °FClear.2 mph67%30.15 "Hg10 mi
9:20 pm52 °FClear.6 mph67%30.15 "Hg10 mi
8:50 pm54 °FClear.5 mph54%30.15 "Hg10 mi
8:20 pm57 °FClear.5 mph48%30.15 "Hg10 mi
7:50 pm59 °FClear.9 mph42%30.12 "Hg10 mi
7:20 pm59 °FClear.9 mph42%30.12 "Hg10 mi
6:50 pm59 °FClear.8 mph42%30.12 "Hg10 mi
6:20 pm61 °FClear.7 mph39%30.12 "Hg10 mi
5:50 pm64 °FClear.8 mph34%30.12 "Hg10 mi
5:20 pm64 °FPassing clouds.6 mph34%30.09 "HgN/A
4:50 pm66 °FSunny.9 mph30%30.09 "Hg10 mi
4:20 pm68 °FSunny.10 mph26%30.09 "Hg10 mi
3:50 pm66 °FSunny.8 mph37%30.09 "Hg10 mi
3:20 pm68 °FSunny.10 mph24%30.09 "Hg10 mi
2:50 pm68 °FPassing clouds.9 mph24%30.09 "HgN/A
2:20 pm68 °FPassing clouds.8 mph26%30.09 "HgN/A
1:50 pm68 °FPassing clouds.8 mph24%30.09 "HgN/A
1:20 pm66 °FSunny.9 mph28%30.12 "Hg10 mi
12:50 pm66 °FSunny.6 mph30%30.12 "Hg10 mi
12:20 pm66 °FSunny.2 mph32%30.12 "Hg10 mi
11:50 am66 °FSunny.2 mph30%30.15 "Hg10 mi
11:20 am64 °FSunny.3 mph32%30.18 "Hg10 mi
10:50 am63 °FSunny.3 mph37%30.18 "Hg10 mi
10:20 am61 °FSunny.2 mph39%30.18 "Hg10 mi
9:50 am59 °FSunny.1 mph48%30.21 "Hg10 mi
9:20 am55 °FSunny.2 mph59%30.21 "Hg10 mi
8:50 am50 °FSunny.3 mph62%30.18 "Hg10 mi
8:20 am48 °FSunny.3 mph62%30.18 "Hg10 mi
7:50 am46 °FSunny.2 mph66%30.21 "Hg10 mi
7:20 am43 °FSunny.3 mph76%30.18 "Hg10 mi
6:50 am45 °FSunny.3 mph71%30.18 "Hg10 mi
6:20 am43 °FClear.3 mph76%30.18 "Hg10 mi
5:50 am43 °FClear.3 mph81%30.18 "Hg10 mi
5:20 am43 °FClear.3 mph81%30.18 "Hg10 mi
4:50 am43 °FClear.2 mph81%30.18 "Hg10 mi
4:20 am43 °FClear.1 mph81%30.18 "Hg10 mi
3:50 am43 °FClear.2 mph81%30.18 "Hg10 mi
3:20 am45 °FClear.1 mph76%30.21 "Hg10 mi
Weather by CustomWeather, © 2017

See weather overviewHow to use our weather pages